Regional Weather Roundup
Issued by NWS

Home | Current Version | Previous Version | Text Only | Print | Product List | Glossary Off
Versions: 1 2 3 4 5 6 7 8 9 10 11 12 13 14 15 16 17 18 19 20 21 22 23 24 25 26 27 28 29 30 31 32 33 34 35 36 37 38 39 40 41 42 43 44 45 46 47 48 49

000
ASUS45 KBOU 032010
RWRCO

WEATHER ROUNDUP FOR COLORADO
NATIONAL WEATHER SERVICE DENVER/BOULDER CO
200 PM MDT FRI JUL 03 2015

NOTE: "FAIR" INDICATES FEW OR NO CLOUDS BELOW 12000 FEET WITH NO
SIGNIFICANT WEATHER AND/OR OBSTRUCTIONS TO VISIBILITY.

COZ001>005-013-030-031-032100-
...NORTHWEST COLORADO...

CITY           SKY/WX    TMP DP  RH WIND       PRES   REMARKS
CRAIG          SUNNY     91  41  17 NE13      30.14F
HAYDEN         SUNNY     84  36  17 N8        30.17F
MEEKER         MOSUNNY   88  42  20 VRB7      30.15F
MOUNT WERNER   NOT AVBL
STEAMBOAT SPGS SUNNY     83  40  21 SW8       30.20F
WALDEN         MOSUNNY   77  32  19 NW5G17    30.30F
$$

COZ006>008-011-032100-
...WEST CENTRAL VALLEYS...

CITY           SKY/WX    TMP DP  RH WIND       PRES   REMARKS
GRAND JUNCTION MOSUNNY   91  50  24 VRB6      30.01F
MONTROSE       MOSUNNY   92  49  22 N9        30.10F
EAGLE          PTSUNNY   84  45  24 W6        30.18F
RIFLE          MOSUNNY   90  47  22 NW8       30.06F
DELTA          MOSUNNY   96  47  18 W5        30.04F
NUCLA          MOSUNNY   90  45  20 CALM      30.16F THUNDER
$$

COZ017>023-064>068-032100-
...SOUTHWEST COLORADO...

CITY           SKY/WX    TMP DP  RH WIND       PRES   REMARKS
DURANGO        MOSUNNY   82  48  30 VRB3      30.20F
CORTEZ         SUNNY     86  51  29 W9        30.15F
PAGOSA SPRINGS MOSUNNY   78  46  31 SE3       30.30F THUNDER
TELLURIDE      MOSUNNY   76  45  33 W10G16    30.40F
WOLF CREEK PAS NOT AVBL
$$

COZ009-010-012-014-032>034-037-058>063-032100-
...CENTRAL COLORADO...

CITY           SKY/WX    TMP DP  RH WIND       PRES   REMARKS
ASPEN          MOSUNNY   82  42  24 VRB6G18   30.25F
BUENA VISTA    PTSUNNY   74  42  31 S3        30.27F THUNDER
COPPER MTN     MOSUNNY   66  28  24 W23G31    30.62S
BERTHOUD PASS  CLOUDY    54  43  66 MISG      30.68S
COTTONWOOD PAS NOT AVBL
GUNNISON       MOSUNNY   75  45  33 CALM      30.30F
KREMMLING      SUNNY     86  30  13 N6        30.24S
LEADVILLE      MOSUNNY   71  30  21 N13G22    30.42S
SALIDA         PTSUNNY   78  45  30 SW14G24   30.32F
SUNLIGHT       MOSUNNY   72  45  37 CALM      30.55F
WILKERSON PASS PTSUNNY   59  46  63 E8        30.59S
$$

COZ069>075-032100-
...SAN LUIS VALLEY/SANGRE DE CRISTO MOUNTAINS...

CITY           SKY/WX    TMP DP  RH WIND       PRES   REMARKS
ALAMOSA        MOSUNNY   73  51  46 SW13      30.30F
LA VETA PASS   MOSUNNY   68  43  40 MISG      30.49F
SAGUACHE       MOSUNNY   72  52  49 S7        30.32F
$$

COZ035-036-038>040-032100-
...NORTHERN COLORADO FRONT RANGE...

CITY           SKY/WX    TMP DP  RH WIND       PRES   REMARKS
DENVER INTL AP MOSUNNY   81  57  43 VRB5      30.14F
DMNS CITY PARK   N/A     82  57  42 SW5       30.13F
AURORA         MOSUNNY   80  58  47 N2        30.16F
FRONT RANGE AP MOSUNNY   82  59  44 S5        30.16F
ERIE MUNI ARPT SUNNY     81  55  39 SE3       30.13F
BOULDER MUN AP SUNNY     79  55  44 SE5       30.14F
CENTENNIAL     MOSUNNY   77  57  50 CALM      30.17F
BROOMFIELD     MOSUNNY   81  55  41 S5        30.17F
FORT COLLINS   SUNNY     81  61  50 S5        30.12F
LONGMONT       SUNNY     85  57  38 N6        30.14F
$$

COZ041-046-047-076>085-087-088-032100-
...PIKES PEAK/PALMER DIVIDE AND SOUTHERN FOOTHILLS...

CITY           SKY/WX    TMP DP  RH WIND       PRES   REMARKS
COLO. SPRINGS  MOSUNNY   77  55  46 S6        30.21F
A. F. ACADEMY  MOSUNNY   75  55  49 S7        30.22F
ELLICOTT       MOSUNNY  N/A N/A N/A S6        30.19F
FALCON         MOSUNNY   75  52  44 SE7       30.27S
FORT CARSON    NOT AVBL
LIMON          MOSUNNY   78  57  48 E7        30.16F
MONUMENT HILL  NOT AVBL
TRINIDAD       PTSUNNY   83  56  39 MISG      30.14F
$$

COZ042>045-048>051-090-091-032100-
...NORTHEAST COLORADO...

CITY           SKY/WX    TMP DP  RH WIND       PRES   REMARKS
GREELEY ARPT   SUNNY     81  61  50 E5        30.12F
AKRON          SUNNY     80  58  46 VRB6      30.12F
BURLINGTON     PTSUNNY   82  53  36 E6        30.10F
WRAY           MOSUNNY   87  53  30 CALM      30.07F
STERLING       SUNNY     82  59  44 W7          N/A
HOLYOKE        SUNNY     86  52  30 CALM      30.07F
FORT MORGAN    SUNNY     82  53  37 E3        30.12F
$$

COZ086-089-092>099-032100-
...SOUTHEAST COLORADO...

CITY           SKY/WX    TMP DP  RH WIND       PRES   REMARKS
PUEBLO         SUNNY     86  57  37 VRB5      30.08F
LA JUNTA       SUNNY     88  58  36 E8        30.06F
LAMAR          MOSUNNY   88  60  38 VRB5      30.03F
SPRINGFIELD      N/A     87  54  32 S8        30.07F
$$



USA.gov is the U.S. government's official web portal to all federal, state and local government web resources and services.